Lid_Strength_Index
12 14 15 14 14 15 15 16 16 15 13 14 14 14 12 11 12 11 11 11 11 10 9 9 9 8 9 9 9 8 8 8 10 11 11 12 12 13 12 12 11 11 11 11
13 15 13 13 14 14 15 15 15 14 14 14 15 15 12 11 11 12 11 11 11 10 10 10 9 9 9 9 9 8 8 9 10 10 10 10 11 12 12 12 12 12 11 11
14 14 13 13 14 15 15 16 16 15 14 14 15 15 14 11 12 11 11 10 10 10 10 10 10 10 10 10 10 9 8 8 9 9 10 12 12 13 13 13 13 12 12 12
14 13 13 14 14 14 16 14 14 15 15 17 15 18 16 13 13 12 12 11 10 10 10 10 10 11 10 10 10 9 9 8 9 9 10 11 11 12 12 13 13 13 12 12
13 14 14 14 14 13 14 13 14 15 16 17 16 17 16 15 13 13 13 12 11 11 10 10 10 10 10 11 10 10 10 9 9 9 9 10 11 11 13 13 14 13 13 13
13 12 13 13 13 13 13 14 14 15 16 19 17 16 16 14 13 13 13 13 12 11 11 11 10 11 11 11 11 11 11 11 10 9 10 10 11 12 14 14 14 14 13 13
14 14 13 13 14 14 14 15 17 18 19 19 17 18 16 13 13 13 13 13 14 13 12 12 11 11 12 12 12 12 12 13 12 11 11 11 11 12 13 14 14 14 14 14
16 16 14 13 13 14 15 15 17 21 20 18 17 19 15 14 14 14 15 15 16 16 15 14 13 12 12 12 12 12 12 13 14 13 13 13 13 13 13 14 14 14 14 14
16 16 14 14 14 13 15 16 14 16 18 19 17 16 14 14 15 15 15 16 17 17 16 15 15 14 13 13 13 13 13 14 14 14 14 14 13 13 14 14 14 14 14 14
14 16 15 15 14 14 14 13 16 16 20 21 19 18 16 15 14 15 16 18 17 17 16 16 16 16 16 15 15 14 13 14 14 14 14 14 14 14 14 14 14 13 13 13
13 14 16 15 16 15 16 17 16 15 16 19 19 17 14 14 14 15 16 17 18 18 17 17 17 16 16 15 15 15 15 15 15 15 15 15 15 14 14 13 13 13 13 13
13 15 16 16 15 15 16 16 16 17 18 17 17 17 14 14 14 14 17 18 18 17 17 17 17 16 16 16 15 15 14 14 14 13 14 14 14 14 13 13 13 13 13 13
14 17 19 17 17 16 17 17 16 15 16 17 18 17 16 16 17 17 18 18 17 17 17 17 18 18 17 17 17 16 15 14 13 13 13 13 13 13 13 13 13 13 13 12
11 16 17 18 17 16 17 16 16 15 17 16 16 14 12 15 16 17 17 17 16 17 18 18 18 18 18 18 18 17 16 15 14 14 14 14 14 13 13 13 12 13 13 13
12 15 15 14 13 13 13 13 13 15 14 16 14 14 11 11 13 15 16 16 17 18 18 18 18 18 18 18 18 17 17 16 15 15 15 15 14 13 13 13 13 13 13 13
12 15 13 15 13 13 14 13 12 12 12 13 12 13 9 9 13 16 15 16 18 18 18 18 18 18 18 18 18 17 17 17 16 16 16 15 15 15 15 15 15 14 15 14
12 13 15 17 13 14 17 14 13 13 11 12 15 12 13 15 14 15 16 17 19 19 19 19 19 18 18 18 18 18 17 17 17 17 16 16 16 16 16 16 16 16 16 16
12 13 14 17 15 21 16 18 16 15 19 21 17 20 20 20 21 20 19 20 20 19 19 19 18 18 18 18 19 18 18 18 18 18 18 17 17 17 17 17 17 17 17 17
9 12 16 18 18 15 14 21 22 22 21 22 20 20 20 20 21 22 20 20 20 20 20 19 19 18 19 20 19 19 19 19 18 18 19 18 18 18 18 18 18 18 18 17
12 11 15 15 19 21 25 24 22 23 23 22 21 20 20 21 21 23 20 20 20 19 19 20 19 19 19 20 20 20 19 19 19 19 19 18 18 19 19 19 18 17 17 17
15 17 19 18 19 26 25 24 21 21 27 22 22 21 21 22 21 20 20 20 19 19 19 19 19 20 20 20 20 20 20 20 19 19 19 18 18 19 18 18 17 17 17 16
17 23 21 20 19 22 23 23 26 24 22 22 21 21 20 20 19 20 19 20 19 20 20 19 20 20 19 19 20 20 20 19 19 19 19 19 19 19 17 17 17 17 17 17
21 24 23 24 25 21 20 22 21 21 22 21 21 20 20 20 20 19 20 20 20 20 20 19 19 19 19 20 20 20 19 19 19 19 19 19 19 18 17 17 17 17 17 17
22 21 22 21 21 22 21 20 19 20 20 19 19 20 20 21 20 20 20 20 20 20 20 20 20 21 21 20 19 20 20 19 19 20 19 19 19 18 17 17 17 17 17 18
24 22 24 21 21 21 20 21 21 20 20 20 19 20 20 21 21 21 21 21 21 21 20 20 20 21 21 20 20 20 19 19 20 20 19 19 18 18 18 17 17 17 16 16
23 24 25 26 23 23 21 20 20 21 21 20 20 21 20 20 21 21 21 21 21 21 20 20 20 20 20 20 20 19 19 19 20 20 18 18 18 18 18 18 18 15 13 12